This is the latest recevied weather packets stored in our database for station/object EA1IRT-1. If no packets are shown the sender has not sent any weather packets the latest 10 day(s).
| Time | Temp. | Humidity | Pressure | Rain* | Wind** | Luminosity | Snow |
|---|---|---|---|---|---|---|---|
| 1777915052 | 13.33° C | 93% | 1015.3 hPa | - | - | - | - |
| 1777914152 | 13.33° C | 91% | 1015.2 hPa | - | - | - | - |
| 1777913252 | 13.33° C | 99% | 1015 hPa | - | - | - | - |
| 1777912352 | 13.33° C | 100% | 1015.1 hPa | - | - | - | - |
| 1777911452 | 13.89° C | 97% | 1015.1 hPa | - | - | - | - |
| 1777910552 | 13.89° C | 97% | 1014.9 hPa | - | - | - | - |
| 1777909652 | 13.89° C | 99% | 1015.1 hPa | - | - | - | - |
| 1777908752 | 13.89° C | 96% | 1015.5 hPa | - | - | - | - |
| 1777907858 | 13.89° C | 97% | 1015.5 hPa | - | - | - | - |
| 1777906951 | 13.89° C | 98% | 1015.2 hPa | - | - | - | - |
| 1777906051 | 13.89° C | 91% | 1015.3 hPa | - | - | - | - |
| 1777905151 | 14.44° C | 87% | 1015.6 hPa | - | - | - | - |
| 1777904251 | 15° C | 83% | 1015.4 hPa | - | - | - | - |
| 1777902451 | 16.11° C | 77% | 1015.1 hPa | - | - | - | - |
| 1777901551 | 16.11° C | 80% | 1015.1 hPa | - | - | - | - |
| 1777900651 | 15.56° C | 82% | 1015 hPa | - | - | - | - |
| 1777899751 | 15° C | 82% | 1015.1 hPa | - | - | - | - |
| 1777898851 | 15.56° C | 81% | 1014.7 hPa | - | - | - | - |
| 1777897951 | 15° C | 82% | 1015 hPa | - | - | - | - |
| 1777897050 | 14.44° C | 81% | 1015.2 hPa | - | - | - | - |
| 1777896150 | 16.11° C | 72% | 1015.3 hPa | - | - | - | - |
| 1777895250 | 17.22° C | 77% | 1014.9 hPa | - | - | - | - |
| 1777894350 | 16.11° C | 80% | 1015.2 hPa | - | - | - | - |
| 1777893450 | 16.67° C | 72% | 1015.3 hPa | - | - | - | - |
| 1777892550 | 17.22° C | 75% | 1015.3 hPa | - | - | - | - |
* Rain since midnight (hover to see other rain measurements)
** Current wind speed in m/s (hover to see current wind gust speed)